Tracking 22458 objects as of 4-Mar-2021
HD Live streaming from Space Station
objects crossing your sky now

IUS DEB

Track IUS DEB now!
10-day predictions


NORAD ID: 43365
Int'l Code: 1999-040N
Perigee: 744.7 km
Apogee: 8,924.7 km
Inclination: 28.2 °
Period: 196.8 minutes
Semi major axis: 11205 km
RCS: Unknown
Launch date: July 23, 1999
Source: United States (US)
Launch site: AIR FORCE EASTERN TEST RANGE (AFETR)

Note: This is SATELLITE DEBRIS
aabbcc
Your satellite tracking list
Your tracking list is empty




NASA's NSSDC Master Catalog

Two Line Element Set (TLE):
1 43365U 99040N   21048.86457122 -.00006179  00000-0 -27918-1 0  9996
2 43365  28.2261 264.2806 3649958 317.7023  19.2666  7.31889334211706
Source of the keplerian elements: AFSPC